Terug naar catalogus

QIANFAN-35

ActiefCommunicatiePO
NORAD 61568·PAYLOAD·🇨🇳 China

Gelanceerd Oct 15, 2024 vanaf Taiyuan Satellite Launch Center

Loading…

Volgende Passages (komende 24 uur)

TLE

VersSource: Space-Track

Epoch: Sep 14, 2026, 21:18 UTC

1 61568U 24185S   26257.88774176  .00000521  00000-0  20290-3 0  9990
2 61568  88.9837  44.4711 0008567  97.0273 263.1897 14.28354497109593

Volg QIANFAN-35 in realtime met AllMySat

Download on the App Store